GIA883 LSZH-WIII

Flight info

Callsign GIA883
Flight time N/A
Altitude 31000
Route DEGES Z2 UMVEG DCT DIMLO DCT TEGRI DCT VEVIN/N0487F330 DCT DINRO DCT UDROS UM859 KARDE UN644 ROLIN DCT TETRO DCT BARAD M747 SULEL N449 DUKAN B449 RANAH L750 BIROS/N0494F350 L750 MERUN L333 KKJ L759 MABUR/N0491F370 L759 PUT B579 VPL W531 VIH A464 VBA Y507 MITOS M630 BOBAG P501 POSOG B469 BIDAK DCT BUNIK
Aircraft B77W/H-SDE1E2E3FGHIJ2J3J4J5M1RWXY/LB1D1

Departure

Time N/A
Airport Zürich Airport (LSZH)

Arrival

Time 2026-04-27 22:21
Airport Soekarno-Hatta International Airport (WIII)
Time Latitude Longitude Altitude Speed Heading
2026-04-27 14:10 39.47454 54.13833 32893 ft 520 kts 106°
2026-04-27 14:11 39.46511 54.18341 32894 ft 520 kts 106°
2026-04-27 14:11 39.44605 54.27425 32888 ft 520 kts 106°
2026-04-27 14:12 39.42712 54.36414 32887 ft 521 kts 106°
2026-04-27 14:12 39.40810 54.45406 32890 ft 522 kts 106°
2026-04-27 14:13 39.38891 54.54447 32892 ft 521 kts 107°
2026-04-27 14:13 39.36974 54.63437 32896 ft 520 kts 107°
2026-04-27 14:14 39.35048 54.72430 32890 ft 521 kts 107°
2026-04-27 14:14 39.33112 54.81439 32888 ft 521 kts 107°
2026-04-27 14:15 39.31154 54.90506 32881 ft 522 kts 107°
2026-04-27 14:15 39.29207 54.99489 32880 ft 521 kts 107°
2026-04-27 14:16 39.27254 55.08463 32877 ft 521 kts 107°
2026-04-27 14:16 39.25280 55.17492 32875 ft 522 kts 107°
2026-04-27 14:17 39.23291 55.26556 32876 ft 521 kts 107°
2026-04-27 14:17 39.21535 55.34530 32881 ft 520 kts 107°
2026-04-27 14:18 39.19558 55.43467 32886 ft 520 kts 107°
2026-04-27 14:18 39.17581 55.52373 32891 ft 521 kts 107°
2026-04-27 14:19 39.15640 55.61073 32888 ft 519 kts 107°
2026-04-27 14:19 39.13633 55.70022 32891 ft 520 kts 108°
2026-04-27 14:20 39.11638 55.78883 32895 ft 520 kts 108°
2026-04-27 14:20 39.09613 55.87843 32900 ft 519 kts 108°
2026-04-27 14:21 39.07591 55.96753 32912 ft 519 kts 108°
2026-04-27 14:21 39.05611 56.05450 32913 ft 517 kts 108°
2026-04-27 14:22 39.03586 56.14305 32900 ft 518 kts 108°
2026-04-27 14:22 39.01549 56.23177 32876 ft 517 kts 108°
2026-04-27 14:23 38.99486 56.32051 32862 ft 517 kts 110°
2026-04-27 14:23 38.97103 56.40732 32867 ft 516 kts 111°
2026-04-27 14:24 38.94695 56.49397 32883 ft 518 kts 111°
2026-04-27 14:24 38.92269 56.58146 32884 ft 518 kts 111°
2026-04-27 14:25 38.89875 56.66779 32877 ft 518 kts 111°
2026-04-27 14:25 38.87443 56.75530 32867 ft 519 kts 111°
2026-04-27 14:26 38.85033 56.84184 32870 ft 518 kts 111°
2026-04-27 14:26 38.82601 56.92886 32868 ft 518 kts 111°
2026-04-27 14:27 38.80160 57.01602 32868 ft 518 kts 111°
2026-04-27 14:27 38.77731 57.10242 32866 ft 518 kts 111°
2026-04-27 14:28 38.75289 57.18901 32879 ft 519 kts 111°
2026-04-27 14:28 38.72847 57.27532 32874 ft 519 kts 111°
2026-04-27 14:29 38.70409 57.36123 32875 ft 518 kts 111°
2026-04-27 14:29 38.67959 57.44728 32879 ft 519 kts 111°
2026-04-27 14:30 38.65511 57.53298 32871 ft 518 kts 111°
2026-04-27 14:30 38.63022 57.61981 32885 ft 519 kts 111°
2026-04-27 14:31 38.60432 57.70569 32884 ft 518 kts 116°
2026-04-27 14:31 38.57449 57.78977 32881 ft 519 kts 116°
2026-04-27 14:32 38.54494 57.87315 32885 ft 520 kts 116°
2026-04-27 14:32 38.51526 57.95711 32890 ft 519 kts 115°
2026-04-27 14:33 38.49043 58.02737 32888 ft 519 kts 115°
2026-04-27 14:33 38.45746 58.12057 32893 ft 519 kts 115°
2026-04-27 14:34 38.42277 58.21841 32893 ft 518 kts 115°
2026-04-27 14:34 38.39229 58.29871 32892 ft 517 kts 121°
2026-04-27 14:35 38.35540 58.37762 32884 ft 517 kts 122°
2026-04-27 14:35 38.31820 58.45651 32884 ft 518 kts 122°
2026-04-27 14:36 38.28237 58.53235 32889 ft 517 kts 122°
2026-04-27 14:36 38.24611 58.60894 32887 ft 517 kts 122°
2026-04-27 14:37 38.20883 58.68752 32881 ft 517 kts 122°
2026-04-27 14:37 38.17171 58.76558 32876 ft 517 kts 122°
2026-04-27 14:38 38.13478 58.84305 32873 ft 516 kts 122°
2026-04-27 14:38 38.09759 58.92088 32870 ft 517 kts 122°
2026-04-27 14:39 38.06646 58.98589 32868 ft 517 kts 122°
2026-04-27 14:39 38.02298 59.07648 32864 ft 517 kts 122°
2026-04-27 14:40 37.98541 59.15456 32886 ft 519 kts 122°
2026-04-27 14:40 37.94803 59.23204 32863 ft 518 kts 122°
2026-04-27 14:41 37.91017 59.31036 32873 ft 518 kts 122°
2026-04-27 14:41 37.86982 59.38523 32886 ft 517 kts 128°
2026-04-27 14:42 37.82605 59.45806 32887 ft 517 kts 128°
2026-04-27 14:42 37.78256 59.53025 32896 ft 518 kts 128°
2026-04-27 14:43 37.74618 59.59052 32898 ft 517 kts 128°
2026-04-27 14:43 37.70246 59.66281 32897 ft 517 kts 129°
2026-04-27 14:44 37.65171 59.74656 32889 ft 517 kts 129°
2026-04-27 14:44 37.60783 59.81878 32893 ft 517 kts 129°
2026-04-27 14:45 37.57144 59.87857 32911 ft 517 kts 129°
2026-04-27 14:45 37.52034 59.96235 32908 ft 518 kts 129°
2026-04-27 14:46 37.47651 60.03406 32910 ft 517 kts 129°
2026-04-27 14:46 37.43247 60.10593 32917 ft 519 kts 129°
2026-04-27 14:47 37.39569 60.16583 32916 ft 518 kts 129°
2026-04-27 14:47 37.35142 60.23781 32912 ft 517 kts 129°
2026-04-27 14:48 37.30045 60.32048 32920 ft 518 kts 129°
2026-04-27 14:48 37.23403 60.42789 32910 ft 517 kts 129°
2026-04-27 14:49 37.18991 60.49905 32917 ft 517 kts 129°
2026-04-27 14:49 37.14560 60.57037 32920 ft 518 kts 129°
2026-04-27 14:50 37.10901 60.62916 32916 ft 517 kts 129°
2026-04-27 14:50 37.06457 60.70040 32904 ft 518 kts 130°
2026-04-27 14:51 37.02020 60.77140 32903 ft 516 kts 130°
2026-04-27 14:51 36.97566 60.84250 32908 ft 516 kts 130°
2026-04-27 14:52 36.93379 60.91547 32895 ft 518 kts 127°
2026-04-27 14:52 36.89273 60.98923 32900 ft 519 kts 127°
2026-04-27 14:53 36.84455 61.07520 32904 ft 518 kts 127°
2026-04-27 14:53 36.80319 61.14862 32909 ft 518 kts 127°
2026-04-27 14:54 36.76159 61.22222 32909 ft 517 kts 127°
2026-04-27 14:54 36.72691 61.28342 32904 ft 517 kts 128°
2026-04-27 14:55 36.67847 61.36867 32905 ft 516 kts 128°
2026-04-27 14:55 36.63714 61.44121 32906 ft 516 kts 128°
2026-04-27 14:56 36.60221 61.50180 32907 ft 514 kts 128°
2026-04-27 14:56 36.55304 61.58554 32910 ft 515 kts 129°
2026-04-27 14:57 36.51772 61.64560 32917 ft 515 kts 129°
2026-04-27 14:57 36.46836 61.72942 32914 ft 515 kts 129°
2026-04-27 14:58 36.43295 61.78943 32911 ft 514 kts 129°
2026-04-27 14:58 36.39052 61.86121 32923 ft 514 kts 129°
2026-04-27 14:59 36.34843 61.93229 32916 ft 512 kts 130°
2026-04-27 14:59 36.33094 61.96177 32920 ft 512 kts 130°
2026-04-27 15:00 36.29399 62.02398 32923 ft 513 kts 130°
2026-04-27 15:00 36.26384 62.07468 32927 ft 512 kts 130°
2026-04-27 15:01 36.25254 62.09363 32927 ft 512 kts 129°
2026-04-27 15:01 36.19102 62.19677 32930 ft 511 kts 129°
2026-04-27 15:02 36.14893 62.26716 32927 ft 511 kts 129°
2026-04-27 15:02 36.10625 62.33837 32929 ft 512 kts 129°
2026-04-27 15:03 36.06379 62.40907 32926 ft 512 kts 129°
2026-04-27 15:03 36.02148 62.47939 32920 ft 512 kts 129°
2026-04-27 15:04 35.97896 62.54991 32924 ft 511 kts 129°
2026-04-27 15:04 35.93623 62.62062 32923 ft 511 kts 129°
2026-04-27 15:05 35.89422 62.69002 32920 ft 509 kts 130°
2026-04-27 15:05 35.85127 62.76081 32929 ft 511 kts 130°
2026-04-27 15:06 35.80892 62.83048 32935 ft 509 kts 130°
2026-04-27 15:06 35.76619 62.90063 32938 ft 510 kts 130°
2026-04-27 15:07 35.72347 62.97061 32922 ft 509 kts 130°
2026-04-27 15:07 35.67386 63.05173 32930 ft 509 kts 130°
2026-04-27 15:08 35.63842 63.10954 32945 ft 509 kts 130°
2026-04-27 15:08 35.59576 63.17900 32952 ft 508 kts 130°
2026-04-27 15:09 35.55306 63.24786 32973 ft 507 kts 130°
2026-04-27 15:09 35.50275 63.32813 32989 ft 506 kts 130°
2026-04-27 15:10 35.46687 63.38528 32999 ft 507 kts 130°
2026-04-27 15:10 35.41671 63.46505 33011 ft 506 kts 130°
2026-04-27 15:11 35.38107 63.52163 33019 ft 505 kts 130°
2026-04-27 15:11 35.33115 63.60075 33040 ft 503 kts 130°
2026-04-27 15:12 35.29533 63.65739 33048 ft 504 kts 131°
2026-04-27 15:12 35.25277 63.72500 33034 ft 501 kts 131°
2026-04-27 15:13 35.21012 63.79265 33055 ft 502 kts 131°
2026-04-27 15:13 35.16066 63.87092 33084 ft 501 kts 131°
2026-04-27 15:14 35.12567 63.92621 33113 ft 499 kts 131°
2026-04-27 15:14 35.08360 63.99254 33123 ft 497 kts 131°
2026-04-27 15:15 35.04095 64.05965 33107 ft 498 kts 131°
2026-04-27 15:15 34.99841 64.12646 33126 ft 497 kts 131°
2026-04-27 15:16 34.95606 64.19286 33148 ft 497 kts 131°
2026-04-27 15:16 34.91383 64.25893 33185 ft 498 kts 131°
2026-04-27 15:17 34.87167 64.32478 33205 ft 496 kts 131°
2026-04-27 15:17 34.82908 64.39117 33255 ft 497 kts 131°
2026-04-27 15:18 34.78623 64.45783 33269 ft 498 kts 131°
2026-04-27 15:18 34.74357 64.52409 33283 ft 497 kts 131°
2026-04-27 15:19 34.70127 64.58967 33295 ft 495 kts 131°
2026-04-27 15:19 34.65934 64.65453 33310 ft 497 kts 132°
2026-04-27 15:20 34.61744 64.71925 33304 ft 494 kts 132°
2026-04-27 15:20 34.57548 64.78393 33311 ft 495 kts 132°
2026-04-27 15:21 34.53319 64.84901 33317 ft 496 kts 132°
2026-04-27 15:21 34.49553 64.90686 33325 ft 496 kts 132°
2026-04-27 15:22 34.45019 64.97623 33319 ft 494 kts 132°
2026-04-27 15:22 34.40716 65.04190 33311 ft 494 kts 132°
2026-04-27 15:23 34.36467 65.10664 33319 ft 497 kts 133°
2026-04-27 15:23 34.31435 65.18317 33315 ft 497 kts 132°
2026-04-27 15:24 34.27844 65.23769 33305 ft 496 kts 132°
2026-04-27 15:24 34.23531 65.30306 33307 ft 497 kts 133°
2026-04-27 15:25 34.18496 65.37921 33313 ft 500 kts 132°
2026-04-27 15:25 34.14329 65.44213 33311 ft 501 kts 133°
2026-04-27 15:26 34.10663 65.49739 33318 ft 500 kts 133°
2026-04-27 15:26 34.06296 65.56310 33321 ft 501 kts 133°
2026-04-27 15:27 34.01925 65.62891 33323 ft 503 kts 133°
2026-04-27 15:27 33.97528 65.69504 33314 ft 502 kts 133°
2026-04-27 15:28 33.93168 65.76047 33311 ft 502 kts 133°
2026-04-27 15:28 33.88817 65.82565 33324 ft 500 kts 133°
2026-04-27 15:29 33.84454 65.89089 33323 ft 501 kts 133°
2026-04-27 15:29 33.80212 65.95418 33307 ft 501 kts 133°
2026-04-27 15:30 33.75759 66.02053 33313 ft 503 kts 133°
2026-04-27 15:30 33.71376 66.08571 33326 ft 501 kts 133°
2026-04-27 15:31 33.66958 66.15129 33315 ft 502 kts 133°
2026-04-27 15:31 33.62630 66.21541 33481 ft 507 kts 133°
2026-04-27 15:32 33.60406 66.24832 33897 ft 504 kts 133°
2026-04-27 15:32 33.58207 66.28085 34301 ft 502 kts 133°
2026-04-27 15:32 33.56041 66.31283 34501 ft 506 kts 133°
2026-04-27 15:32 33.53759 66.34649 34657 ft 510 kts 133°
2026-04-27 15:33 33.51553 66.37901 34854 ft 513 kts 133°
2026-04-27 15:33 33.49255 66.41286 35404 ft 513 kts 133°
2026-04-27 15:33 33.47002 66.44601 35289 ft 516 kts 133°
2026-04-27 15:33 33.45285 66.47125 35571 ft 518 kts 133°
2026-04-27 15:34 33.42949 66.50544 35369 ft 514 kts 133°
2026-04-27 15:34 33.40677 66.53867 35346 ft 508 kts 133°
2026-04-27 15:34 33.36583 66.59839 35352 ft 513 kts 133°
2026-04-27 15:35 33.32116 66.66345 35355 ft 512 kts 134°
2026-04-27 15:35 33.27595 66.72921 35358 ft 512 kts 134°
2026-04-27 15:36 33.23064 66.79499 35370 ft 514 kts 134°
2026-04-27 15:36 33.18531 66.86068 35379 ft 513 kts 134°
2026-04-27 15:37 33.13968 66.92668 35380 ft 513 kts 134°
2026-04-27 15:37 33.09455 66.99184 35398 ft 514 kts 134°
2026-04-27 15:38 33.04905 67.05745 35412 ft 511 kts 134°
2026-04-27 15:38 33.00326 67.12331 35402 ft 514 kts 134°
2026-04-27 15:39 32.95786 67.18853 35388 ft 515 kts 134°
2026-04-27 15:39 32.91180 67.25454 35348 ft 516 kts 134°
2026-04-27 15:40 32.86644 67.31950 35355 ft 514 kts 134°
2026-04-27 15:40 32.82094 67.38447 35333 ft 518 kts 134°
2026-04-27 15:41 32.77507 67.44991 35327 ft 516 kts 134°
2026-04-27 15:41 32.72009 67.52448 35303 ft 512 kts 135°
2026-04-27 15:42 32.68030 67.57770 35287 ft 515 kts 135°
2026-04-27 15:42 32.63294 67.64108 35263 ft 514 kts 135°
2026-04-27 15:43 32.58604 67.70380 35244 ft 514 kts 136°
2026-04-27 15:43 32.53872 67.76699 35241 ft 514 kts 136°
2026-04-27 15:44 32.49106 67.83085 35067 ft 517 kts 134°
2026-04-27 15:44 32.46827 67.86350 35204 ft 520 kts 133°
2026-04-27 15:44 32.44540 67.89658 35225 ft 524 kts 133°
2026-04-27 15:45 32.39944 67.96294 35223 ft 520 kts 133°
2026-04-27 15:45 32.35593 68.02548 35242 ft 524 kts 133°
2026-04-27 15:46 32.33116 68.06100 35517 ft 523 kts 133°
2026-04-27 15:46 32.30909 68.09262 35484 ft 520 kts 133°
2026-04-27 15:46 32.28844 68.12216 35326 ft 520 kts 133°
2026-04-27 15:46 32.26529 68.15525 35276 ft 515 kts 133°
2026-04-27 15:47 32.22195 68.21706 35271 ft 519 kts 133°
2026-04-27 15:47 32.17603 68.28245 35279 ft 517 kts 133°
2026-04-27 15:48 32.13234 68.34454 35273 ft 517 kts 133°
2026-04-27 15:49 32.06379 68.44175 35271 ft 518 kts 133°
2026-04-27 15:49 32.01763 68.50707 35258 ft 516 kts 133°
2026-04-27 15:50 31.97187 68.57171 35242 ft 516 kts 133°
2026-04-27 15:50 31.92567 68.63684 35235 ft 519 kts 133°
2026-04-27 15:51 31.87979 68.70144 35214 ft 514 kts 134°
2026-04-27 15:51 31.83380 68.76606 35217 ft 515 kts 133°
2026-04-27 15:52 31.78765 68.83081 35198 ft 514 kts 133°
2026-04-27 15:52 31.74179 68.89504 35189 ft 514 kts 133°
2026-04-27 15:53 31.69586 68.95924 35180 ft 514 kts 133°
2026-04-27 15:53 31.64991 69.02404 35179 ft 512 kts 131°
2026-04-27 15:54 31.60636 69.08906 35189 ft 515 kts 131°
2026-04-27 15:54 31.56285 69.15391 35169 ft 513 kts 131°
2026-04-27 15:55 31.51850 69.21980 35148 ft 512 kts 131°
2026-04-27 15:55 31.47439 69.28512 35115 ft 512 kts 131°
2026-04-27 15:56 31.43014 69.35051 35101 ft 510 kts 131°
2026-04-27 15:56 31.38583 69.41585 35093 ft 511 kts 131°
2026-04-27 15:57 31.33938 69.47516 35102 ft 505 kts 143°
2026-04-27 15:57 31.28630 69.52608 35136 ft 503 kts 144°
2026-04-27 15:58 31.24997 69.56054 35149 ft 505 kts 144°
2026-04-27 15:58 31.21373 69.59487 35154 ft 503 kts 144°
2026-04-27 15:59 31.16182 69.64399 35137 ft 503 kts 144°
2026-04-27 15:59 31.11895 69.68451 35135 ft 504 kts 144°
2026-04-27 16:00 31.06193 69.73831 35143 ft 505 kts 144°
2026-04-27 16:01 31.00890 69.78829 35148 ft 505 kts 145°
2026-04-27 16:01 30.95477 69.83923 35141 ft 503 kts 144°
2026-04-27 16:02 30.90000 69.89068 35126 ft 505 kts 144°
2026-04-27 16:02 30.84532 69.94197 35133 ft 505 kts 145°
2026-04-27 16:03 30.79070 69.99314 35137 ft 503 kts 144°
2026-04-27 16:03 30.73575 70.04453 35134 ft 505 kts 145°
2026-04-27 16:04 30.68106 70.09561 35056 ft 505 kts 145°
2026-04-27 16:04 30.62617 70.14679 34987 ft 505 kts 145°
2026-04-27 16:05 30.57137 70.19782 34928 ft 508 kts 145°
2026-04-27 16:05 30.51615 70.24915 34883 ft 507 kts 145°
2026-04-27 16:06 30.46101 70.30033 34860 ft 510 kts 145°
2026-04-27 16:06 30.40528 70.35199 34849 ft 512 kts 145°
2026-04-27 16:07 30.34958 70.40355 34833 ft 511 kts 145°
2026-04-27 16:07 30.29369 70.45519 34790 ft 513 kts 145°
2026-04-27 16:08 30.24104 70.50377 34736 ft 516 kts 145°
2026-04-27 16:08 30.19014 70.55122 34726 ft 516 kts 144°
2026-04-27 16:09 30.14627 70.59283 34709 ft 522 kts 144°
2026-04-27 16:10 30.00460 70.72675 34670 ft 522 kts 144°
2026-04-27 16:11 29.92057 70.80588 34644 ft 520 kts 144°
2026-04-27 16:12 29.84118 70.88045 34647 ft 524 kts 144°
2026-04-27 16:13 29.75723 70.95915 34627 ft 522 kts 144°
2026-04-27 16:13 29.67301 71.03793 34621 ft 520 kts 143°
2026-04-27 16:14 29.56407 71.14934 34628 ft 522 kts 141°
2026-04-27 16:15 29.45553 71.26026 34627 ft 522 kts 141°
2026-04-27 16:16 29.34652 71.37108 34625 ft 524 kts 141°
2026-04-27 16:17 29.23736 71.48220 34625 ft 525 kts 141°
2026-04-27 16:18 29.12848 71.59346 34631 ft 523 kts 141°
2026-04-27 16:19 29.07364 71.64933 34628 ft 526 kts 141°
2026-04-27 16:20 28.96452 71.76027 34625 ft 527 kts 141°
2026-04-27 16:21 28.88295 71.84298 34625 ft 527 kts 141°
2026-04-27 16:22 28.77501 71.95213 34636 ft 528 kts 141°
2026-04-27 16:22 28.69206 72.03581 34641 ft 526 kts 141°
2026-04-27 16:23 28.60999 72.11842 34636 ft 524 kts 140°
2026-04-27 16:24 28.55552 72.17315 34636 ft 525 kts 140°
2026-04-27 16:25 28.45815 72.29645 34637 ft 531 kts 119°
2026-04-27 16:26 28.38960 72.44471 34639 ft 529 kts 118°
2026-04-27 16:27 28.32104 72.59271 34644 ft 529 kts 118°
2026-04-27 16:28 28.23664 72.77389 34659 ft 529 kts 118°
2026-04-27 16:29 28.15066 72.95760 34671 ft 529 kts 118°
2026-04-27 16:30 28.08135 73.10510 34680 ft 529 kts 118°
2026-04-27 16:31 27.99469 73.28875 34664 ft 528 kts 118°
2026-04-27 16:32 27.94268 73.39857 34671 ft 528 kts 118°
2026-04-27 16:33 27.89078 73.50790 34678 ft 528 kts 118°
2026-04-27 16:33 27.85609 73.58079 34683 ft 528 kts 118°
2026-04-27 16:34 27.82122 73.65395 34691 ft 528 kts 119°
2026-04-27 16:34 27.78624 73.72723 34691 ft 528 kts 119°
2026-04-27 16:35 27.75153 73.79978 34696 ft 529 kts 119°
2026-04-27 16:36 27.70070 73.91026 34700 ft 528 kts 117°
2026-04-27 16:36 27.66795 73.98450 34698 ft 527 kts 117°
2026-04-27 16:37 27.63516 74.05851 34711 ft 528 kts 117°
2026-04-27 16:37 27.60238 74.13223 34719 ft 529 kts 117°
2026-04-27 16:38 27.56940 74.20618 34718 ft 529 kts 117°
2026-04-27 16:38 27.53638 74.28007 34711 ft 529 kts 117°
2026-04-27 16:39 27.50320 74.35414 34718 ft 528 kts 117°
2026-04-27 16:39 27.47012 74.42786 34725 ft 528 kts 117°
2026-04-27 16:40 27.43705 74.50142 34721 ft 528 kts 117°
2026-04-27 16:40 27.40398 74.57485 34732 ft 528 kts 117°
2026-04-27 16:41 27.37068 74.64864 34737 ft 528 kts 117°
2026-04-27 16:41 27.33763 74.72177 34734 ft 527 kts 118°
2026-04-27 16:42 27.30439 74.79518 34737 ft 526 kts 117°
2026-04-27 16:42 27.27105 74.86870 34743 ft 526 kts 118°
2026-04-27 16:43 27.23773 74.94202 34746 ft 527 kts 117°
2026-04-27 16:43 27.20443 75.01518 34744 ft 527 kts 117°
2026-04-27 16:44 27.17104 75.08839 34746 ft 527 kts 118°
2026-04-27 16:44 27.13778 75.16121 34746 ft 526 kts 117°
2026-04-27 16:45 27.10440 75.23416 34747 ft 526 kts 118°
2026-04-27 16:45 27.07109 75.30684 34749 ft 526 kts 118°
2026-04-27 16:46 27.03760 75.37977 34752 ft 526 kts 117°
2026-04-27 16:46 27.00412 75.45252 34756 ft 524 kts 117°
2026-04-27 16:47 26.97051 75.52542 34766 ft 525 kts 118°
2026-04-27 16:47 26.93717 75.59763 34771 ft 525 kts 117°
2026-04-27 16:48 26.90354 75.67034 34756 ft 525 kts 118°
2026-04-27 16:48 26.86981 75.74314 34753 ft 524 kts 118°
2026-04-27 16:49 26.81926 75.85184 34745 ft 524 kts 119°
2026-04-27 16:49 26.78353 75.92221 34746 ft 524 kts 120°
2026-04-27 16:50 26.74734 75.99284 34743 ft 524 kts 120°
2026-04-27 16:50 26.71099 76.06390 34743 ft 523 kts 120°
2026-04-27 16:51 26.67514 76.13396 34738 ft 523 kts 120°
2026-04-27 16:51 26.63901 76.20452 34727 ft 523 kts 120°
2026-04-27 16:52 26.60276 76.27525 34726 ft 522 kts 120°
2026-04-27 16:52 26.56669 76.34552 34720 ft 523 kts 120°
2026-04-27 16:53 26.53052 76.41589 34712 ft 523 kts 120°
2026-04-27 16:53 26.49446 76.48595 34709 ft 523 kts 120°
2026-04-27 16:54 26.45834 76.55611 34707 ft 522 kts 119°
2026-04-27 16:54 26.42405 76.62781 34711 ft 522 kts 117°
2026-04-27 16:55 26.39003 76.69943 34711 ft 522 kts 118°
2026-04-27 16:55 26.35607 76.77062 34712 ft 523 kts 118°
2026-04-27 16:56 26.32178 76.84226 34708 ft 521 kts 118°
2026-04-27 16:56 26.28772 76.91323 34709 ft 522 kts 118°
2026-04-27 16:57 26.25363 76.98414 34711 ft 521 kts 118°
2026-04-27 16:57 26.21918 77.05566 34708 ft 522 kts 118°
2026-04-27 16:58 26.18492 77.12665 34701 ft 522 kts 118°
2026-04-27 16:58 26.15051 77.19785 34702 ft 522 kts 118°
2026-04-27 16:59 26.11628 77.26833 34705 ft 522 kts 118°
2026-04-27 16:59 26.08169 77.33927 34717 ft 521 kts 118°
2026-04-27 17:00 26.02980 77.44548 34731 ft 522 kts 118°
2026-04-27 17:01 25.99512 77.51634 34734 ft 521 kts 118°
2026-04-27 17:01 25.96050 77.58697 34738 ft 520 kts 118°
2026-04-27 17:02 25.92605 77.65713 34747 ft 522 kts 118°
2026-04-27 17:02 25.89135 77.72770 34740 ft 521 kts 118°
2026-04-27 17:03 25.85686 77.79773 34739 ft 521 kts 118°
2026-04-27 17:03 25.82222 77.86796 34734 ft 520 kts 118°
2026-04-27 17:04 25.78754 77.93816 34719 ft 520 kts 118°
2026-04-27 17:04 25.75278 78.00841 34706 ft 521 kts 118°
2026-04-27 17:05 25.71795 78.07869 34703 ft 521 kts 118°
2026-04-27 17:05 25.68296 78.14919 34704 ft 521 kts 118°
2026-04-27 17:06 25.64804 78.21943 34699 ft 520 kts 118°
2026-04-27 17:06 25.61310 78.28960 34700 ft 522 kts 118°
2026-04-27 17:07 25.57849 78.35980 34703 ft 521 kts 118°
2026-04-27 17:07 25.54370 78.43070 34704 ft 521 kts 118°
2026-04-27 17:08 25.50925 78.50075 34709 ft 521 kts 118°
2026-04-27 17:08 25.47462 78.57105 34711 ft 521 kts 118°
2026-04-27 17:09 25.44002 78.64116 34710 ft 521 kts 118°
2026-04-27 17:09 25.40518 78.71165 34702 ft 521 kts 119°
2026-04-27 17:10 25.37047 78.78176 34709 ft 521 kts 119°
2026-04-27 17:10 25.33557 78.85214 34713 ft 522 kts 119°
2026-04-27 17:11 25.30069 78.92237 34707 ft 521 kts 119°
2026-04-27 17:11 25.24859 79.02705 34702 ft 521 kts 119°
2026-04-27 17:12 25.19622 79.13206 34708 ft 521 kts 119°
2026-04-27 17:13 25.16140 79.20174 34702 ft 521 kts 119°
2026-04-27 17:13 25.12632 79.27184 34707 ft 520 kts 119°
2026-04-27 17:14 25.09158 79.34116 34701 ft 521 kts 119°
2026-04-27 17:14 25.05643 79.41120 34705 ft 520 kts 119°
2026-04-27 17:15 25.02140 79.48086 34707 ft 519 kts 120°
2026-04-27 17:15 24.98644 79.55032 34711 ft 518 kts 120°
2026-04-27 17:16 24.95144 79.61974 34716 ft 520 kts 120°
2026-04-27 17:16 24.91659 79.68876 34701 ft 519 kts 120°
2026-04-27 17:17 24.88122 79.75869 34696 ft 520 kts 120°
2026-04-27 17:17 24.84611 79.82802 34691 ft 519 kts 120°
2026-04-27 17:18 24.78986 79.92982 34692 ft 519 kts 130°
2026-04-27 17:18 24.74428 79.99084 34700 ft 518 kts 131°
2026-04-27 17:19 24.69838 80.05167 34713 ft 518 kts 131°
2026-04-27 17:19 24.65237 80.11256 34726 ft 520 kts 131°
2026-04-27 17:20 24.60627 80.17348 34736 ft 520 kts 131°
2026-04-27 17:20 24.55998 80.23458 34741 ft 520 kts 131°
2026-04-27 17:21 24.51393 80.29527 34744 ft 521 kts 131°
2026-04-27 17:21 24.46736 80.35658 34754 ft 521 kts 131°
2026-04-27 17:22 24.42097 80.41756 34760 ft 522 kts 131°
2026-04-27 17:22 24.37456 80.47850 34764 ft 522 kts 131°
2026-04-27 17:23 24.32779 80.53983 34780 ft 523 kts 131°
2026-04-27 17:23 24.28130 80.60072 34780 ft 524 kts 131°
2026-04-27 17:24 24.23444 80.66202 34770 ft 525 kts 131°
2026-04-27 17:24 24.18750 80.72334 34757 ft 525 kts 131°
2026-04-27 17:25 24.14051 80.78465 34754 ft 526 kts 132°
2026-04-27 17:25 24.09365 80.84572 34754 ft 525 kts 132°
2026-04-27 17:26 24.04648 80.90710 34750 ft 524 kts 132°
2026-04-27 17:26 23.99974 80.96787 34742 ft 526 kts 132°
2026-04-27 17:27 23.95240 81.02931 34755 ft 528 kts 132°
2026-04-27 17:27 23.90502 81.09076 34771 ft 530 kts 132°
2026-04-27 17:28 23.85763 81.15213 34765 ft 530 kts 132°
2026-04-27 17:29 23.78611 81.24461 34768 ft 530 kts 132°
2026-04-27 17:29 23.74038 81.30364 34784 ft 534 kts 133°
2026-04-27 17:30 23.69247 81.36542 34792 ft 534 kts 133°
2026-04-27 17:30 23.62059 81.45796 34798 ft 534 kts 133°
2026-04-27 17:31 23.57218 81.52020 34818 ft 538 kts 133°
2026-04-27 17:31 23.52386 81.58223 34823 ft 539 kts 133°
2026-04-27 17:32 23.45119 81.67538 34805 ft 542 kts 134°
2026-04-27 17:33 23.40231 81.73794 34800 ft 543 kts 134°
2026-04-27 17:33 23.35355 81.80028 34800 ft 541 kts 134°
2026-04-27 17:34 23.30473 81.86259 34808 ft 545 kts 134°
2026-04-27 17:34 23.25548 81.92539 34811 ft 544 kts 134°
2026-04-27 17:35 23.20644 81.98785 34820 ft 546 kts 134°
2026-04-27 17:35 23.15703 82.05069 34808 ft 546 kts 134°
2026-04-27 17:36 23.10754 82.11356 34795 ft 545 kts 134°
2026-04-27 17:36 23.05802 82.17646 34797 ft 550 kts 133°
2026-04-27 17:37 23.00989 82.24022 34790 ft 550 kts 133°
2026-04-27 17:37 22.96129 82.30477 34791 ft 549 kts 133°
2026-04-27 17:38 22.91276 82.36903 34808 ft 552 kts 133°
2026-04-27 17:38 22.86399 82.43351 34816 ft 554 kts 133°
2026-04-27 17:39 22.81527 82.49781 34826 ft 553 kts 133°
2026-04-27 17:39 22.76619 82.56246 34820 ft 556 kts 133°
2026-04-27 17:40 22.71711 82.62704 34817 ft 557 kts 133°
2026-04-27 17:40 22.66804 82.69151 34791 ft 560 kts 134°
2026-04-27 17:41 22.61835 82.75674 34792 ft 560 kts 134°
2026-04-27 17:41 22.56864 82.82188 34794 ft 558 kts 134°
2026-04-27 17:42 22.51922 82.88658 34795 ft 559 kts 134°
2026-04-27 17:42 22.46971 82.95129 34785 ft 564 kts 134°
2026-04-27 17:43 22.41960 83.01673 34769 ft 562 kts 134°
2026-04-27 17:43 22.36988 83.08158 34760 ft 562 kts 134°
2026-04-27 17:44 22.31958 83.14707 34764 ft 566 kts 134°
2026-04-27 17:44 22.26952 83.21222 34765 ft 563 kts 135°
2026-04-27 17:45 22.21923 83.27754 34774 ft 567 kts 135°
2026-04-27 17:45 22.16925 83.34272 34765 ft 564 kts 133°
2026-04-27 17:46 22.12039 83.40919 34759 ft 569 kts 133°
2026-04-27 17:46 22.07142 83.47587 34742 ft 568 kts 133°
2026-04-27 17:47 22.02067 83.54147 34737 ft 568 kts 134°
2026-04-27 17:47 21.96961 83.60677 34735 ft 568 kts 135°
2026-04-27 17:48 21.91878 83.67175 34712 ft 567 kts 135°
2026-04-27 17:48 21.86789 83.73679 34718 ft 567 kts 135°
2026-04-27 17:49 21.81721 83.80150 34727 ft 569 kts 135°
2026-04-27 17:49 21.76607 83.86676 34729 ft 567 kts 135°
2026-04-27 17:50 21.71525 83.93151 34726 ft 570 kts 135°
2026-04-27 17:50 21.63911 84.02908 34715 ft 570 kts 134°
2026-04-27 17:51 21.58856 84.09486 34721 ft 570 kts 134°
2026-04-27 17:51 21.53818 84.16028 34728 ft 567 kts 134°
2026-04-27 17:52 21.48775 84.22566 34740 ft 569 kts 134°
2026-04-27 17:52 21.44597 84.27975 34749 ft 570 kts 134°
2026-04-27 17:53 21.38699 84.35601 34744 ft 568 kts 134°
2026-04-27 17:53 21.33622 84.42157 34735 ft 568 kts 134°
2026-04-27 17:54 21.28576 84.48664 34725 ft 570 kts 134°
2026-04-27 17:54 21.23502 84.55198 34719 ft 572 kts 134°
2026-04-27 17:55 21.18410 84.61749 34716 ft 570 kts 134°
2026-04-27 17:55 21.13306 84.68308 34698 ft 570 kts 135°
2026-04-27 17:56 21.08249 84.74797 34709 ft 571 kts 134°
2026-04-27 17:56 21.03151 84.81332 34710 ft 571 kts 134°
2026-04-27 17:57 20.98050 84.87864 34711 ft 571 kts 134°
2026-04-27 17:57 20.92970 84.94360 34725 ft 570 kts 134°
2026-04-27 17:58 20.87890 85.00850 34728 ft 569 kts 134°
2026-04-27 17:58 20.82791 85.07355 34737 ft 572 kts 134°
2026-04-27 17:59 20.77704 85.13837 34745 ft 571 kts 134°
2026-04-27 17:59 20.72626 85.20302 34753 ft 573 kts 134°
2026-04-27 18:00 20.67524 85.26789 34758 ft 571 kts 133°
2026-04-27 18:00 20.62407 85.33289 34750 ft 571 kts 133°
2026-04-27 18:01 20.57314 85.39749 34745 ft 573 kts 134°
2026-04-27 18:01 20.52204 85.46225 34748 ft 573 kts 134°
2026-04-27 18:02 20.47060 85.52735 34746 ft 573 kts 134°
2026-04-27 18:02 20.41943 85.59205 34744 ft 572 kts 134°
2026-04-27 18:03 20.36786 85.65717 34739 ft 573 kts 134°
2026-04-27 18:03 20.31641 85.72207 34720 ft 573 kts 134°
2026-04-27 18:04 20.26514 85.78667 34722 ft 572 kts 134°
2026-04-27 18:04 20.21054 85.84769 34720 ft 569 kts 141°
2026-04-27 18:05 20.15347 85.90622 34727 ft 569 kts 141°
2026-04-27 18:05 20.09627 85.96479 34724 ft 567 kts 140°
2026-04-27 18:06 20.03932 86.02306 34735 ft 570 kts 141°
2026-04-27 18:06 19.98225 86.08141 34735 ft 568 kts 140°
2026-04-27 18:07 19.92551 86.13940 34733 ft 568 kts 140°
2026-04-27 18:07 19.86862 86.19850 34733 ft 568 kts 139°
2026-04-27 18:08 19.81285 86.25748 34734 ft 566 kts 139°
2026-04-27 18:08 19.75723 86.31620 34745 ft 567 kts 139°
2026-04-27 18:09 19.70113 86.37530 34752 ft 566 kts 139°
2026-04-27 18:09 19.64506 86.43429 34753 ft 565 kts 139°
2026-04-27 18:10 19.58915 86.49284 34759 ft 566 kts 139°
2026-04-27 18:10 19.53286 86.55138 34763 ft 566 kts 139°
2026-04-27 18:11 19.47683 86.60959 34772 ft 564 kts 139°
2026-04-27 18:11 19.42091 86.66763 34761 ft 564 kts 139°
2026-04-27 18:12 19.36481 86.72580 34761 ft 562 kts 139°
2026-04-27 18:12 19.30879 86.78383 34770 ft 564 kts 139°
2026-04-27 18:13 19.25316 86.84141 34774 ft 563 kts 139°
2026-04-27 18:13 19.19696 86.89952 34779 ft 562 kts 139°
2026-04-27 18:14 19.14118 86.95714 34781 ft 561 kts 139°
2026-04-27 18:14 19.08516 87.01494 34790 ft 562 kts 139°
2026-04-27 18:15 19.02946 87.07235 34792 ft 563 kts 139°
2026-04-27 18:15 18.97350 87.12999 34794 ft 562 kts 139°
2026-04-27 18:16 18.91753 87.18757 34796 ft 562 kts 139°
2026-04-27 18:16 18.86150 87.24515 34786 ft 560 kts 139°
2026-04-27 18:17 18.80562 87.30254 34782 ft 557 kts 139°
2026-04-27 18:17 18.75011 87.35949 34779 ft 561 kts 139°
2026-04-27 18:18 18.69399 87.41699 34781 ft 561 kts 139°
2026-04-27 18:18 18.63813 87.47419 34785 ft 561 kts 139°
2026-04-27 18:19 18.58249 87.53110 34789 ft 558 kts 139°
2026-04-27 18:19 18.52672 87.58809 34795 ft 560 kts 139°
2026-04-27 18:20 18.47082 87.64516 34805 ft 559 kts 139°
2026-04-27 18:20 18.41501 87.70207 34793 ft 558 kts 139°
2026-04-27 18:21 18.35910 87.75903 34790 ft 559 kts 139°
2026-04-27 18:21 18.30356 87.81557 34797 ft 559 kts 139°
2026-04-27 18:22 18.24801 87.87262 34796 ft 557 kts 138°
2026-04-27 18:22 18.19282 87.92995 34804 ft 557 kts 139°
2026-04-27 18:23 18.13769 87.98713 34808 ft 558 kts 139°
2026-04-27 18:23 18.08245 88.04434 34808 ft 559 kts 139°
2026-04-27 18:24 18.02702 88.10169 34809 ft 558 kts 139°
2026-04-27 18:24 17.97190 88.15865 34812 ft 558 kts 139°
2026-04-27 18:25 17.91661 88.21573 34811 ft 559 kts 138°
2026-04-27 18:25 17.86099 88.27309 34807 ft 558 kts 139°
2026-04-27 18:26 17.80561 88.33015 34808 ft 558 kts 139°
2026-04-27 18:26 17.75005 88.38735 34809 ft 559 kts 139°
2026-04-27 18:27 17.69473 88.44424 34812 ft 559 kts 139°
2026-04-27 18:27 17.63945 88.50105 34816 ft 558 kts 139°
2026-04-27 18:28 17.58355 88.55842 34823 ft 559 kts 138°
2026-04-27 18:28 17.52798 88.61542 34824 ft 560 kts 139°
2026-04-27 18:29 17.47255 88.67223 34805 ft 558 kts 139°
2026-04-27 18:29 17.41710 88.72898 34803 ft 559 kts 139°
2026-04-27 18:30 17.36146 88.78590 34795 ft 558 kts 139°
2026-04-27 18:30 17.30591 88.84267 34797 ft 560 kts 139°
2026-04-27 18:31 17.25026 88.89949 34798 ft 559 kts 138°
2026-04-27 18:31 17.19442 88.95646 34804 ft 560 kts 139°
2026-04-27 18:32 17.13918 89.01364 34806 ft 559 kts 138°
2026-04-27 18:32 17.08417 89.07078 34809 ft 558 kts 138°
2026-04-27 18:33 17.02892 89.12807 34810 ft 557 kts 138°
2026-04-27 18:33 16.97417 89.18478 34813 ft 559 kts 138°
2026-04-27 18:34 16.91882 89.24204 34814 ft 559 kts 138°
2026-04-27 18:34 16.86363 89.29909 34813 ft 557 kts 137°
2026-04-27 18:35 16.80885 89.35566 34819 ft 556 kts 138°
2026-04-27 18:35 16.75397 89.41229 34821 ft 555 kts 137°
2026-04-27 18:36 16.69885 89.46910 34824 ft 555 kts 137°
2026-04-27 18:36 16.64381 89.52579 34826 ft 557 kts 137°
2026-04-27 18:37 16.58857 89.58263 34831 ft 555 kts 137°
2026-04-27 18:37 16.53344 89.63931 34832 ft 557 kts 137°
2026-04-27 18:38 16.47857 89.69569 34820 ft 557 kts 137°
2026-04-27 18:38 16.42359 89.75212 34822 ft 555 kts 137°
2026-04-27 18:39 16.36827 89.80885 34823 ft 555 kts 137°
2026-04-27 18:39 16.31346 89.86501 34825 ft 555 kts 138°
2026-04-27 18:40 16.25847 89.92132 34826 ft 554 kts 137°
2026-04-27 18:40 16.20335 89.97771 34827 ft 555 kts 137°
2026-04-27 18:41 16.14804 90.03423 34827 ft 556 kts 137°
2026-04-27 18:41 16.09318 90.09027 34832 ft 555 kts 137°
2026-04-27 18:42 16.04688 90.13751 34831 ft 556 kts 138°
2026-04-27 18:42 15.98288 90.20342 34834 ft 554 kts 136°
2026-04-27 18:43 15.92899 90.26006 34839 ft 553 kts 136°
2026-04-27 18:43 15.87479 90.31690 34836 ft 553 kts 136°
2026-04-27 18:44 15.82044 90.37383 34839 ft 554 kts 136°
2026-04-27 18:44 15.76640 90.43038 34840 ft 553 kts 136°
2026-04-27 18:45 15.71183 90.48740 34836 ft 554 kts 136°
2026-04-27 18:45 15.65776 90.54387 34835 ft 552 kts 136°
2026-04-27 18:46 15.60362 90.60036 34835 ft 551 kts 136°
2026-04-27 18:46 15.54926 90.65701 34831 ft 553 kts 137°
2026-04-27 18:47 15.49542 90.71308 34823 ft 554 kts 136°
2026-04-27 18:47 15.44097 90.76976 34824 ft 551 kts 136°
2026-04-27 18:48 15.38694 90.82594 34825 ft 552 kts 136°
2026-04-27 18:48 15.33282 90.88217 34826 ft 551 kts 136°
2026-04-27 18:49 15.27874 90.93832 34827 ft 551 kts 136°
2026-04-27 18:49 15.22454 90.99455 34828 ft 551 kts 136°
2026-04-27 18:50 15.17061 91.05046 34830 ft 549 kts 136°
2026-04-27 18:50 15.11642 91.10659 34832 ft 549 kts 136°
2026-04-27 18:51 15.06262 91.16228 34836 ft 550 kts 136°
2026-04-27 18:51 15.00849 91.21826 34845 ft 548 kts 136°
2026-04-27 18:52 14.95472 91.27383 34852 ft 547 kts 136°
2026-04-27 18:53 14.87408 91.35709 34849 ft 546 kts 136°
2026-04-27 18:53 14.82022 91.41265 34851 ft 546 kts 136°
2026-04-27 18:54 14.76666 91.46786 34851 ft 545 kts 136°
2026-04-27 18:54 14.71270 91.52344 34851 ft 544 kts 136°
2026-04-27 18:55 14.65914 91.57857 34854 ft 545 kts 136°
2026-04-27 18:55 14.60547 91.63377 34855 ft 544 kts 136°
2026-04-27 18:56 14.55180 91.68893 34845 ft 543 kts 136°
2026-04-27 18:56 14.49837 91.74380 34845 ft 543 kts 136°
2026-04-27 18:57 14.44488 91.79870 34846 ft 542 kts 136°
2026-04-27 18:57 14.39131 91.85364 34847 ft 541 kts 136°
2026-04-27 18:58 14.33810 91.90816 34849 ft 541 kts 136°
2026-04-27 18:58 14.28457 91.96299 34849 ft 541 kts 136°
2026-04-27 18:59 14.23142 92.01766 34849 ft 541 kts 135°
2026-04-27 18:59 14.17887 92.07316 34846 ft 541 kts 135°
2026-04-27 19:00 14.12628 92.12866 34840 ft 540 kts 135°
2026-04-27 19:00 14.07404 92.18372 34834 ft 540 kts 135°
2026-04-27 19:01 14.02153 92.23900 34835 ft 540 kts 135°
2026-04-27 19:01 13.96902 92.29422 34832 ft 539 kts 135°
2026-04-27 19:02 13.91624 92.34932 34833 ft 540 kts 136°
2026-04-27 19:02 13.86257 92.40301 34829 ft 538 kts 136°
2026-04-27 19:03 13.80864 92.45688 34828 ft 539 kts 136°
2026-04-27 19:03 13.75528 92.51022 34828 ft 537 kts 136°
2026-04-27 19:04 13.70170 92.56379 34829 ft 537 kts 136°
2026-04-27 19:04 13.64797 92.61749 34830 ft 536 kts 136°
2026-04-27 19:05 13.59431 92.67109 34831 ft 537 kts 136°
2026-04-27 19:05 13.54112 92.72420 34835 ft 535 kts 136°
2026-04-27 19:06 13.48742 92.77779 34834 ft 536 kts 136°
2026-04-27 19:06 13.43422 92.83083 34838 ft 534 kts 136°
2026-04-27 19:07 13.38080 92.88408 34846 ft 535 kts 136°
2026-04-27 19:07 13.32742 92.93725 34853 ft 533 kts 136°
2026-04-27 19:08 13.27397 92.99045 34858 ft 532 kts 136°
2026-04-27 19:08 13.22082 93.04332 34859 ft 532 kts 136°
2026-04-27 19:09 13.16760 93.09622 34857 ft 532 kts 136°
2026-04-27 19:09 13.11449 93.14898 34854 ft 532 kts 136°
2026-04-27 19:10 13.06133 93.20176 34851 ft 531 kts 136°
2026-04-27 19:10 13.00841 93.25428 34850 ft 531 kts 136°
2026-04-27 19:11 12.95528 93.30695 34850 ft 528 kts 136°
2026-04-27 19:11 12.90239 93.35938 34852 ft 528 kts 136°
2026-04-27 19:12 12.84964 93.41161 34846 ft 528 kts 136°
2026-04-27 19:12 12.79698 93.46373 34845 ft 528 kts 136°
2026-04-27 19:13 12.74399 93.51615 34841 ft 527 kts 136°
2026-04-27 19:13 12.69124 93.56829 34835 ft 528 kts 136°
2026-04-27 19:14 12.63834 93.62056 34830 ft 526 kts 136°
2026-04-27 19:14 12.58577 93.67245 34823 ft 526 kts 136°
2026-04-27 19:15 12.53300 93.72452 34825 ft 526 kts 136°
2026-04-27 19:15 12.48046 93.77634 34823 ft 525 kts 136°
2026-04-27 19:16 12.42805 93.82800 34827 ft 525 kts 136°
2026-04-27 19:16 12.37520 93.88005 34825 ft 524 kts 136°
2026-04-27 19:17 12.32295 93.93149 34826 ft 523 kts 136°
2026-04-27 19:17 12.27047 93.98312 34826 ft 521 kts 136°
2026-04-27 19:18 12.21812 94.03459 34828 ft 522 kts 136°
2026-04-27 19:18 12.16605 94.08633 34827 ft 522 kts 135°
2026-04-27 19:19 12.11413 94.13799 34826 ft 521 kts 135°
2026-04-27 19:19 12.06208 94.18973 34827 ft 523 kts 135°
2026-04-27 19:20 12.00983 94.24161 34831 ft 520 kts 135°
2026-04-27 19:20 11.95788 94.29318 34827 ft 520 kts 135°
2026-04-27 19:21 11.90593 94.34470 34825 ft 520 kts 135°
2026-04-27 19:21 11.85409 94.39610 34824 ft 520 kts 135°
2026-04-27 19:22 11.80375 94.44885 34832 ft 520 kts 130°
2026-04-27 19:22 11.75670 94.50517 34828 ft 520 kts 129°
2026-04-27 19:23 11.70971 94.56106 34823 ft 520 kts 130°
2026-04-27 19:23 11.66257 94.61679 34827 ft 520 kts 130°
2026-04-27 19:24 11.61517 94.67261 34824 ft 520 kts 130°
2026-04-27 19:24 11.56777 94.72830 34821 ft 519 kts 130°
2026-04-27 19:25 11.52050 94.78378 34819 ft 520 kts 130°
2026-04-27 19:25 11.47290 94.83955 34813 ft 520 kts 130°
2026-04-27 19:26 11.42560 94.89494 34808 ft 519 kts 130°
2026-04-27 19:26 11.37808 94.95055 34807 ft 519 kts 130°
2026-04-27 19:27 11.33088 95.00574 34814 ft 520 kts 130°
2026-04-27 19:27 11.28327 95.06139 34825 ft 519 kts 130°
2026-04-27 19:28 11.23581 95.11682 34822 ft 520 kts 130°
2026-04-27 19:28 11.18851 95.17203 34828 ft 519 kts 130°
2026-04-27 19:29 11.14109 95.22736 34826 ft 519 kts 130°
2026-04-27 19:29 11.09363 95.28271 34829 ft 518 kts 130°
2026-04-27 19:30 11.04608 95.33813 34826 ft 519 kts 130°
2026-04-27 19:30 10.99873 95.39327 34829 ft 518 kts 130°
2026-04-27 19:31 10.95127 95.44853 34829 ft 518 kts 130°
2026-04-27 19:31 10.90376 95.50382 34830 ft 518 kts 130°
2026-04-27 19:32 10.85644 95.55885 34826 ft 518 kts 130°
2026-04-27 19:32 10.80893 95.61407 34826 ft 518 kts 130°
2026-04-27 19:33 10.76157 95.66910 34825 ft 518 kts 130°
2026-04-27 19:33 10.71388 95.72447 34825 ft 519 kts 130°
2026-04-27 19:34 10.66639 95.77958 34826 ft 518 kts 130°
2026-04-27 19:34 10.61903 95.83453 34825 ft 517 kts 130°
2026-04-27 19:35 10.57151 95.88962 34825 ft 519 kts 130°
2026-04-27 19:35 10.52407 95.94460 34825 ft 518 kts 130°
2026-04-27 19:36 10.47657 95.99960 34827 ft 518 kts 130°
2026-04-27 19:36 10.42884 96.05486 34825 ft 518 kts 130°
2026-04-27 19:37 10.38148 96.10966 34819 ft 518 kts 130°
2026-04-27 19:37 10.33406 96.16450 34816 ft 518 kts 129°
2026-04-27 19:38 10.28626 96.21975 34813 ft 518 kts 129°
2026-04-27 19:38 10.23874 96.27465 34810 ft 518 kts 129°
2026-04-27 19:39 10.19128 96.32945 34809 ft 518 kts 130°
2026-04-27 19:39 10.14373 96.38432 34814 ft 517 kts 130°
2026-04-27 19:40 10.09624 96.43912 34824 ft 516 kts 129°
2026-04-27 19:40 10.04871 96.49392 34828 ft 516 kts 129°
2026-04-27 19:41 10.00102 96.54836 34823 ft 517 kts 133°
2026-04-27 19:41 9.94849 96.59863 34895 ft 524 kts 135°
2026-04-27 19:41 9.92181 96.62369 35405 ft 523 kts 135°
2026-04-27 19:42 9.89500 96.64884 36243 ft 517 kts 135°
2026-04-27 19:42 9.86977 96.67252 36792 ft 516 kts 136°
2026-04-27 19:42 9.84317 96.69750 36820 ft 517 kts 136°
2026-04-27 19:43 9.79057 96.74686 36825 ft 515 kts 136°
2026-04-27 19:43 9.73772 96.79645 36825 ft 516 kts 135°
2026-04-27 19:44 9.68590 96.84507 36825 ft 516 kts 136°
2026-04-27 19:44 9.63316 96.89452 36825 ft 515 kts 135°
2026-04-27 19:45 9.58046 96.94391 36827 ft 515 kts 136°
2026-04-27 19:45 9.52778 96.99326 36827 ft 515 kts 136°
2026-04-27 19:46 9.47531 97.04240 36827 ft 515 kts 135°
2026-04-27 19:46 9.42231 97.09201 36828 ft 514 kts 135°
2026-04-27 19:47 9.36988 97.14108 36827 ft 514 kts 136°
2026-04-27 19:47 9.31762 97.18995 36826 ft 513 kts 136°
2026-04-27 19:48 9.26510 97.23905 36827 ft 513 kts 135°
2026-04-27 19:48 9.21222 97.28847 36827 ft 514 kts 135°
2026-04-27 19:49 9.15992 97.33731 36828 ft 514 kts 136°
2026-04-27 19:49 9.10718 97.38655 36829 ft 514 kts 136°
2026-04-27 19:50 9.05465 97.43558 36828 ft 514 kts 136°
2026-04-27 19:50 9.00218 97.48453 36825 ft 512 kts 136°
2026-04-27 19:51 8.94941 97.53374 36827 ft 513 kts 136°
2026-04-27 19:51 8.89703 97.58256 36823 ft 513 kts 136°
2026-04-27 19:52 8.84457 97.63143 36812 ft 513 kts 136°
2026-04-27 19:52 8.79189 97.68030 36807 ft 512 kts 136°
2026-04-27 19:53 8.71284 97.75358 36803 ft 512 kts 136°
2026-04-27 19:53 8.66044 97.80213 36804 ft 512 kts 136°
2026-04-27 19:54 8.60775 97.85094 36800 ft 512 kts 136°
2026-04-27 19:54 8.55517 97.89963 36804 ft 512 kts 136°
2026-04-27 19:55 8.50277 97.94813 36809 ft 513 kts 136°
2026-04-27 19:55 8.45010 97.99683 36817 ft 513 kts 136°
2026-04-27 19:56 8.39725 98.04565 36826 ft 511 kts 136°
2026-04-27 19:56 8.34455 98.09431 36825 ft 511 kts 136°
2026-04-27 19:57 8.29236 98.14248 36828 ft 511 kts 136°
2026-04-27 19:57 8.23941 98.19134 36829 ft 512 kts 136°
2026-04-27 19:58 8.18695 98.23972 36827 ft 511 kts 136°
2026-04-27 19:58 8.13403 98.28851 36828 ft 511 kts 136°
2026-04-27 19:59 8.08077 98.33558 36834 ft 511 kts 140°
2026-04-27 19:59 8.02510 98.38093 36829 ft 512 kts 140°
2026-04-27 20:00 7.96998 98.42598 36831 ft 511 kts 140°
2026-04-27 20:00 7.91463 98.47135 36831 ft 510 kts 140°
2026-04-27 20:01 7.85955 98.51657 36826 ft 510 kts 140°
2026-04-27 20:01 7.80446 98.56183 36820 ft 510 kts 140°
2026-04-27 20:02 7.74915 98.60728 36816 ft 511 kts 140°
2026-04-27 20:02 7.69420 98.65243 36814 ft 510 kts 140°
2026-04-27 20:03 7.63919 98.69766 36815 ft 510 kts 140°
2026-04-27 20:03 7.58436 98.74274 36811 ft 509 kts 140°
2026-04-27 20:04 7.52907 98.78818 36805 ft 510 kts 140°
2026-04-27 20:04 7.48340 98.82570 36806 ft 509 kts 140°
2026-04-27 20:05 7.41932 98.87828 36806 ft 508 kts 140°
2026-04-27 20:05 7.36428 98.92341 36806 ft 509 kts 140°
2026-04-27 20:06 7.30938 98.96840 36807 ft 508 kts 140°
2026-04-27 20:06 7.25441 99.01345 36807 ft 508 kts 140°
2026-04-27 20:07 7.19963 99.05832 36809 ft 507 kts 140°
2026-04-27 20:07 7.14492 99.10311 36811 ft 507 kts 140°
2026-04-27 20:08 7.08973 99.14829 36810 ft 508 kts 140°
2026-04-27 20:08 7.03498 99.19310 36811 ft 507 kts 140°
2026-04-27 20:09 6.98035 99.23779 36812 ft 507 kts 140°
2026-04-27 20:09 6.92526 99.28284 36812 ft 508 kts 140°
2026-04-27 20:10 6.87033 99.32776 36812 ft 507 kts 140°
2026-04-27 20:10 6.81571 99.37240 36815 ft 507 kts 140°
2026-04-27 20:11 6.76069 99.41736 36821 ft 507 kts 140°
2026-04-27 20:11 6.70601 99.46202 36820 ft 507 kts 140°
2026-04-27 20:12 6.66042 99.49925 36819 ft 506 kts 140°
2026-04-27 20:12 6.59637 99.55154 36815 ft 506 kts 140°
2026-04-27 20:13 6.54183 99.59605 36811 ft 506 kts 140°
2026-04-27 20:13 6.48698 99.64079 36812 ft 506 kts 140°
2026-04-27 20:14 6.43167 99.68510 36817 ft 506 kts 141°
2026-04-27 20:14 6.37602 99.72865 36820 ft 507 kts 141°
2026-04-27 20:15 6.31993 99.77216 36818 ft 507 kts 141°
2026-04-27 20:15 6.26402 99.81489 36816 ft 506 kts 141°
2026-04-27 20:16 6.20776 99.85794 36815 ft 507 kts 142°
2026-04-27 20:16 6.15155 99.90098 36814 ft 507 kts 141°
2026-04-27 20:17 6.09550 99.94389 36810 ft 506 kts 141°
2026-04-27 20:17 6.04829 99.98004 36809 ft 508 kts 142°
2026-04-27 20:18 5.98263 100.03005 36809 ft 508 kts 142°
2026-04-27 20:18 5.92610 100.07278 36811 ft 507 kts 142°
2026-04-27 20:19 5.86988 100.11530 36808 ft 505 kts 142°
2026-04-27 20:19 5.81372 100.15778 36812 ft 504 kts 142°
2026-04-27 20:20 5.75751 100.20033 36813 ft 506 kts 142°
2026-04-27 20:20 5.70128 100.24286 36817 ft 504 kts 142°
2026-04-27 20:21 5.64551 100.28504 36818 ft 502 kts 142°
2026-04-27 20:21 5.58922 100.32761 36826 ft 502 kts 142°
2026-04-27 20:22 5.53355 100.36970 36825 ft 502 kts 142°
2026-04-27 20:22 5.47772 100.41189 36826 ft 502 kts 142°
2026-04-27 20:23 5.42178 100.45416 36825 ft 500 kts 142°
2026-04-27 20:23 5.36597 100.49632 36827 ft 500 kts 142°
2026-04-27 20:24 5.31003 100.53857 36831 ft 499 kts 142°
2026-04-27 20:24 5.25435 100.58061 36834 ft 499 kts 142°
2026-04-27 20:25 5.19866 100.62266 36839 ft 500 kts 142°
2026-04-27 20:25 5.14338 100.66438 36842 ft 499 kts 142°
2026-04-27 20:26 5.08762 100.70645 36845 ft 499 kts 142°
2026-04-27 20:26 5.03269 100.74789 36845 ft 498 kts 142°
2026-04-27 20:27 4.97747 100.78954 36851 ft 497 kts 142°
2026-04-27 20:27 4.92193 100.83143 36861 ft 499 kts 142°
2026-04-27 20:28 4.86621 100.87344 36865 ft 499 kts 142°
2026-04-27 20:28 4.81987 100.90838 36869 ft 499 kts 142°
2026-04-27 20:29 4.75500 100.95727 36863 ft 499 kts 142°
2026-04-27 20:29 4.69955 100.99905 36855 ft 498 kts 142°
2026-04-27 20:30 4.64425 101.04073 36863 ft 498 kts 142°
2026-04-27 20:30 4.58792 101.08145 36858 ft 498 kts 149°
2026-04-27 20:31 4.52342 101.10837 36873 ft 500 kts 162°
2026-04-27 20:31 4.45655 101.12796 36863 ft 500 kts 162°
2026-04-27 20:32 4.38913 101.14755 36856 ft 501 kts 162°
2026-04-27 20:32 4.32195 101.16708 36846 ft 499 kts 162°
2026-04-27 20:33 4.25511 101.18650 36838 ft 499 kts 162°
2026-04-27 20:33 4.19064 101.20522 36833 ft 499 kts 162°
2026-04-27 20:34 4.12370 101.22466 36830 ft 499 kts 162°
2026-04-27 20:34 4.05652 101.24417 36835 ft 499 kts 162°
2026-04-27 20:35 3.98983 101.26354 36828 ft 498 kts 162°
2026-04-27 20:35 3.92318 101.28288 36836 ft 498 kts 162°
2026-04-27 20:36 3.85655 101.30222 36837 ft 498 kts 162°
2026-04-27 20:36 3.78963 101.32168 36837 ft 498 kts 162°
2026-04-27 20:37 3.72287 101.34168 36841 ft 498 kts 162°
2026-04-27 20:37 3.65673 101.36154 36839 ft 497 kts 162°
2026-04-27 20:38 3.59017 101.38150 36840 ft 496 kts 162°
2026-04-27 20:38 3.52360 101.40144 36841 ft 497 kts 161°
2026-04-27 20:39 3.45662 101.42151 36840 ft 498 kts 161°
2026-04-27 20:39 3.39018 101.44140 36838 ft 496 kts 161°
2026-04-27 20:40 3.32420 101.46195 36834 ft 494 kts 156°
2026-04-27 20:40 3.26119 101.49025 36840 ft 494 kts 153°
2026-04-27 20:41 3.19868 101.51917 36833 ft 494 kts 153°
2026-04-27 20:41 3.13575 101.54825 36838 ft 493 kts 153°
2026-04-27 20:42 3.07319 101.57714 36832 ft 492 kts 153°
2026-04-27 20:42 3.01088 101.60591 36831 ft 492 kts 153°
2026-04-27 20:43 2.94833 101.63477 36829 ft 492 kts 153°
2026-04-27 20:43 2.88573 101.66366 36836 ft 492 kts 153°
2026-04-27 20:44 2.82485 101.69175 36831 ft 493 kts 153°
2026-04-27 20:44 2.76218 101.72066 36832 ft 492 kts 153°
2026-04-27 20:45 2.69997 101.74964 36832 ft 490 kts 152°
2026-04-27 20:45 2.63836 101.77974 36826 ft 491 kts 152°
2026-04-27 20:46 2.57693 101.80974 36825 ft 492 kts 152°
2026-04-27 20:46 2.51521 101.83982 36823 ft 492 kts 152°
2026-04-27 20:47 2.45363 101.86983 36824 ft 492 kts 152°
2026-04-27 20:47 2.39228 101.89971 36819 ft 492 kts 152°
2026-04-27 20:48 2.34065 101.92485 36820 ft 491 kts 152°
2026-04-27 20:48 2.26853 101.95995 36816 ft 491 kts 153°
2026-04-27 20:49 2.20742 101.98970 36815 ft 490 kts 153°
2026-04-27 20:49 2.14552 102.01982 36814 ft 492 kts 153°
2026-04-27 20:50 2.08397 102.04978 36814 ft 492 kts 152°
2026-04-27 20:50 2.02248 102.08001 36803 ft 492 kts 149°
2026-04-27 20:51 1.96813 102.12111 36807 ft 488 kts 133°
2026-04-27 20:51 1.92675 102.17517 36818 ft 487 kts 123°
2026-04-27 20:52 1.88910 102.23132 36825 ft 486 kts 123°
2026-04-27 20:52 1.85155 102.28741 36826 ft 487 kts 123°
2026-04-27 20:53 1.81397 102.34356 36825 ft 486 kts 123°
2026-04-27 20:53 1.77625 102.39993 36819 ft 486 kts 123°
2026-04-27 20:54 1.72006 102.48389 36812 ft 486 kts 122°
2026-04-27 20:55 1.68227 102.54035 36813 ft 487 kts 122°
2026-04-27 20:55 1.64465 102.59656 36814 ft 486 kts 122°
2026-04-27 20:56 1.60720 102.65251 36814 ft 486 kts 122°
2026-04-27 20:56 1.56943 102.70893 36818 ft 486 kts 122°
2026-04-27 20:57 1.53212 102.76466 36818 ft 485 kts 122°
2026-04-27 20:57 1.49459 102.82072 36814 ft 485 kts 122°
2026-04-27 20:58 1.45701 102.87687 36815 ft 486 kts 122°
2026-04-27 20:58 1.41925 102.93325 36813 ft 487 kts 122°
2026-04-27 20:59 1.38180 102.98918 36811 ft 485 kts 122°
2026-04-27 20:59 1.34412 103.04558 36812 ft 484 kts 122°
2026-04-27 21:00 1.30682 103.10145 36812 ft 484 kts 122°
2026-04-27 21:00 1.26958 103.15720 36811 ft 484 kts 122°
2026-04-27 21:01 1.23225 103.21309 36812 ft 485 kts 122°
2026-04-27 21:01 1.19484 103.26907 36811 ft 483 kts 122°
2026-04-27 21:02 1.15749 103.32498 36806 ft 482 kts 122°
2026-04-27 21:02 1.12020 103.38079 36809 ft 482 kts 122°
2026-04-27 21:03 1.08301 103.43645 36820 ft 481 kts 122°
2026-04-27 21:03 1.04536 103.49199 36819 ft 482 kts 126°
2026-04-27 21:04 1.00014 103.54140 36823 ft 482 kts 132°
2026-04-27 21:04 0.95313 103.58991 36823 ft 483 kts 132°
2026-04-27 21:05 0.90656 103.63798 36823 ft 482 kts 132°
2026-04-27 21:05 0.85973 103.68634 36830 ft 481 kts 132°
2026-04-27 21:06 0.81319 103.73441 36828 ft 481 kts 132°
2026-04-27 21:06 0.76671 103.78243 36823 ft 481 kts 132°
2026-04-27 21:07 0.71989 103.83079 36811 ft 481 kts 132°
2026-04-27 21:07 0.67340 103.87881 36808 ft 481 kts 132°
2026-04-27 21:08 0.62687 103.92687 36807 ft 482 kts 132°
2026-04-27 21:08 0.58017 103.97511 36807 ft 482 kts 132°
2026-04-27 21:09 0.53345 104.02336 36806 ft 482 kts 132°
2026-04-27 21:09 0.48673 104.07159 36805 ft 483 kts 132°
2026-04-27 21:10 0.43968 104.12015 36805 ft 483 kts 132°
2026-04-27 21:10 0.39302 104.16833 36805 ft 485 kts 132°
2026-04-27 21:11 0.34361 104.21468 36803 ft 489 kts 142°
2026-04-27 21:11 0.28375 104.24718 36809 ft 492 kts 154°
2026-04-27 21:12 0.22040 104.27441 36804 ft 493 kts 154°
2026-04-27 21:12 0.15727 104.30147 36805 ft 493 kts 154°
2026-04-27 21:13 0.09362 104.32876 36804 ft 493 kts 155°
2026-04-27 21:13 0.03044 104.35586 36804 ft 495 kts 155°
2026-04-27 21:14 -0.03284 104.38300 36805 ft 494 kts 155°
2026-04-27 21:14 -0.09633 104.41022 36809 ft 494 kts 155°
2026-04-27 21:15 -0.15984 104.43746 36815 ft 494 kts 154°
2026-04-27 21:15 -0.22271 104.46443 36827 ft 494 kts 155°
2026-04-27 21:16 -0.28654 104.49181 36839 ft 494 kts 154°
2026-04-27 21:16 -0.34965 104.51889 36839 ft 494 kts 155°
2026-04-27 21:17 -0.41328 104.54618 36835 ft 494 kts 155°
2026-04-27 21:17 -0.47628 104.57320 36832 ft 494 kts 154°
2026-04-27 21:18 -0.54044 104.59932 36827 ft 495 kts 156°
2026-04-27 21:18 -0.60460 104.62470 36826 ft 495 kts 156°
2026-04-27 21:19 -0.66853 104.65005 36825 ft 494 kts 156°
2026-04-27 21:19 -0.73272 104.67556 36827 ft 495 kts 156°
2026-04-27 21:20 -0.82864 104.71371 36820 ft 494 kts 156°
2026-04-27 21:20 -0.89259 104.73916 36814 ft 494 kts 156°
2026-04-27 21:21 -0.95666 104.76466 36807 ft 494 kts 156°
2026-04-27 21:21 -1.02118 104.79034 36808 ft 496 kts 155°
2026-04-27 21:22 -1.08521 104.81583 36807 ft 494 kts 155°
2026-04-27 21:22 -1.14865 104.84110 36807 ft 495 kts 156°
2026-04-27 21:23 -1.21246 104.86651 36806 ft 495 kts 156°
2026-04-27 21:23 -1.27711 104.89225 36807 ft 495 kts 156°
2026-04-27 21:24 -1.34116 104.91775 36807 ft 494 kts 156°
2026-04-27 21:24 -1.40519 104.94326 36805 ft 494 kts 156°
2026-04-27 21:25 -1.46899 104.96867 36806 ft 494 kts 156°
2026-04-27 21:25 -1.53307 104.99419 36807 ft 495 kts 156°
2026-04-27 21:26 -1.59741 105.01983 36807 ft 495 kts 156°
2026-04-27 21:26 -1.66156 105.04538 36806 ft 495 kts 156°
2026-04-27 21:27 -1.72576 105.07096 36808 ft 495 kts 156°
2026-04-27 21:27 -1.78969 105.09643 36808 ft 495 kts 156°
2026-04-27 21:28 -1.85401 105.12206 36812 ft 494 kts 155°
2026-04-27 21:28 -1.91805 105.14758 36819 ft 495 kts 156°
2026-04-27 21:29 -1.98209 105.17310 36830 ft 494 kts 156°
2026-04-27 21:29 -2.04632 105.19870 36841 ft 494 kts 155°
2026-04-27 21:30 -2.11017 105.22415 36844 ft 495 kts 156°
2026-04-27 21:30 -2.17430 105.24971 36837 ft 494 kts 155°
2026-04-27 21:31 -2.23773 105.27500 36829 ft 494 kts 156°
2026-04-27 21:31 -2.30156 105.30045 36825 ft 493 kts 156°
2026-04-27 21:32 -2.36593 105.32611 36825 ft 493 kts 156°
2026-04-27 21:32 -2.42956 105.35149 36825 ft 494 kts 156°
2026-04-27 21:33 -2.49260 105.37663 36825 ft 494 kts 155°
2026-04-27 21:33 -2.54806 105.39906 36831 ft 493 kts 154°
2026-04-27 21:34 -2.61174 105.42611 36835 ft 493 kts 154°
2026-04-27 21:34 -2.66295 105.44785 36836 ft 493 kts 154°
2026-04-27 21:35 -2.72701 105.47501 36840 ft 493 kts 155°
2026-04-27 21:35 -2.79045 105.50188 36842 ft 493 kts 154°
2026-04-27 21:36 -2.85416 105.52886 36842 ft 494 kts 154°
2026-04-27 21:36 -2.91755 105.55570 36838 ft 493 kts 155°
2026-04-27 21:37 -2.98104 105.58257 36834 ft 492 kts 155°
2026-04-27 21:37 -3.04460 105.60948 36831 ft 493 kts 155°
2026-04-27 21:38 -3.10765 105.63618 36833 ft 494 kts 155°
2026-04-27 21:38 -3.17119 105.66309 36833 ft 493 kts 155°
2026-04-27 21:39 -3.23468 105.68997 36837 ft 494 kts 155°
2026-04-27 21:39 -3.29806 105.71681 36834 ft 493 kts 154°
2026-04-27 21:40 -3.36160 105.74374 36835 ft 494 kts 155°
2026-04-27 21:40 -3.42517 105.77067 36831 ft 494 kts 155°
2026-04-27 21:41 -3.48874 105.79760 36828 ft 494 kts 155°
2026-04-27 21:41 -3.55287 105.82478 36828 ft 494 kts 155°
2026-04-27 21:42 -3.61591 105.85149 36828 ft 495 kts 155°
2026-04-27 21:42 -3.67703 105.87740 36827 ft 494 kts 155°
2026-04-27 21:43 -3.74068 105.90439 36828 ft 494 kts 155°
2026-04-27 21:43 -3.80436 105.93140 36828 ft 495 kts 155°
2026-04-27 21:44 -3.86775 105.95828 36828 ft 496 kts 155°
2026-04-27 21:44 -3.93149 105.98531 36828 ft 496 kts 155°
2026-04-27 21:45 -3.99552 106.01248 36827 ft 496 kts 155°
2026-04-27 21:45 -4.05676 106.04340 36823 ft 493 kts 143°
2026-04-27 21:46 -4.11238 106.08299 36825 ft 492 kts 142°
2026-04-27 21:46 -4.16827 106.12328 36825 ft 492 kts 142°
2026-04-27 21:47 -4.22376 106.16327 36825 ft 492 kts 142°
2026-04-27 21:47 -4.27750 106.20199 36825 ft 491 kts 142°
2026-04-27 21:48 -4.33259 106.24170 36825 ft 492 kts 142°
2026-04-27 21:48 -4.38769 106.28141 36830 ft 491 kts 142°
2026-04-27 21:49 -4.44321 106.32143 36837 ft 491 kts 142°
2026-04-27 21:49 -4.49876 106.36149 36841 ft 492 kts 142°
2026-04-27 21:50 -4.55352 106.40098 36844 ft 492 kts 142°
2026-04-27 21:50 -4.58023 106.42024 36674 ft 486 kts 142°
2026-04-27 21:50 -4.60616 106.43894 35863 ft 488 kts 142°
2026-04-27 21:51 -4.63273 106.45812 34835 ft 492 kts 142°
2026-04-27 21:51 -4.66052 106.47817 33939 ft 492 kts 142°
2026-04-27 21:51 -4.68809 106.49805 33111 ft 491 kts 142°
2026-04-27 21:51 -4.71590 106.51812 32292 ft 490 kts 142°
2026-04-27 21:52 -4.74360 106.53811 31449 ft 491 kts 142°
2026-04-27 21:52 -4.77137 106.55815 30571 ft 492 kts 142°
2026-04-27 21:52 -4.79905 106.57813 29982 ft 487 kts 142°
2026-04-27 21:52 -4.82641 106.59787 29509 ft 479 kts 142°
2026-04-27 21:53 -4.85350 106.61702 28979 ft 474 kts 146°
2026-04-27 21:53 -4.88273 106.63285 28482 ft 470 kts 153°
2026-04-27 21:53 -4.91219 106.64643 28157 ft 467 kts 155°
2026-04-27 21:53 -4.94176 106.65980 27812 ft 463 kts 155°
2026-04-27 21:54 -4.97082 106.67295 27448 ft 453 kts 155°
2026-04-27 21:54 -4.99949 106.68597 27082 ft 443 kts 155°
2026-04-27 21:54 -5.02733 106.69864 26726 ft 433 kts 155°
2026-04-27 21:54 -5.05438 106.71098 26378 ft 424 kts 155°
2026-04-27 21:55 -5.08104 106.72315 26035 ft 415 kts 155°
2026-04-27 21:55 -5.10735 106.73517 25700 ft 412 kts 155°
2026-04-27 21:55 -5.13341 106.74708 25366 ft 413 kts 155°
2026-04-27 21:55 -5.15951 106.75900 25026 ft 410 kts 155°
2026-04-27 21:56 -5.18577 106.77100 24689 ft 408 kts 155°
2026-04-27 21:56 -5.23721 106.79429 23986 ft 403 kts 156°
2026-04-27 21:56 -5.26279 106.80586 23639 ft 402 kts 156°
2026-04-27 21:57 -5.28826 106.81740 23296 ft 400 kts 156°
2026-04-27 21:57 -5.31375 106.82894 22951 ft 398 kts 156°
2026-04-27 21:57 -5.33896 106.84036 22609 ft 395 kts 156°
2026-04-27 21:57 -5.36410 106.85175 22267 ft 388 kts 156°
2026-04-27 21:58 -5.38853 106.86283 21947 ft 380 kts 156°
2026-04-27 21:58 -5.41217 106.87356 21633 ft 371 kts 156°
2026-04-27 21:58 -5.43575 106.88408 21328 ft 364 kts 160°
2026-04-27 21:58 -5.46022 106.89033 21060 ft 363 kts 173°
2026-04-27 21:59 -5.48566 106.89048 20742 ft 368 kts 187°
2026-04-27 21:59 -5.50997 106.88495 20240 ft 371 kts 197°
2026-04-27 21:59 -5.53457 106.87651 19672 ft 371 kts 199°
2026-04-27 21:59 -5.55898 106.86759 19141 ft 370 kts 199°
2026-04-27 22:00 -5.58305 106.85860 18637 ft 368 kts 200°
2026-04-27 22:00 -5.60551 106.85010 18169 ft 366 kts 200°
2026-04-27 22:00 -5.62403 106.84306 17792 ft 364 kts 200°
2026-04-27 22:00 -5.64543 106.83487 17356 ft 361 kts 200°
2026-04-27 22:01 -5.66882 106.82591 16879 ft 359 kts 200°
2026-04-27 22:01 -5.69215 106.81696 16397 ft 356 kts 200°
2026-04-27 22:01 -5.71543 106.80800 15920 ft 354 kts 200°
2026-04-27 22:01 -5.73845 106.79913 15444 ft 351 kts 199°
2026-04-27 22:02 -5.76114 106.79040 14978 ft 348 kts 199°
2026-04-27 22:02 -5.78358 106.78175 14470 ft 339 kts 199°
2026-04-27 22:02 -5.80509 106.77348 14062 ft 327 kts 199°
2026-04-27 22:02 -5.82642 106.76528 13694 ft 330 kts 199°
2026-04-27 22:03 -5.84772 106.75639 13240 ft 331 kts 208°
2026-04-27 22:03 -5.86508 106.74124 12821 ft 335 kts 232°
2026-04-27 22:03 -5.87688 106.72127 12412 ft 335 kts 243°
2026-04-27 22:03 -5.88631 106.69985 11990 ft 333 kts 246°
2026-04-27 22:04 -5.89505 106.67847 11447 ft 327 kts 247°
2026-04-27 22:04 -5.90333 106.65785 11020 ft 317 kts 248°
2026-04-27 22:04 -5.91141 106.63765 10638 ft 307 kts 248°
2026-04-27 22:04 -5.91923 106.61809 10495 ft 295 kts 248°
2026-04-27 22:05 -5.92683 106.59905 10265 ft 296 kts 248°
2026-04-27 22:05 -5.93456 106.57970 9939 ft 296 kts 248°
2026-04-27 22:05 -5.94216 106.56103 9711 ft 288 kts 248°
2026-04-27 22:05 -5.94965 106.54271 9534 ft 278 kts 248°
2026-04-27 22:06 -5.95683 106.52509 9344 ft 267 kts 248°
2026-04-27 22:06 -5.96374 106.50813 9150 ft 257 kts 249°
2026-04-27 22:06 -5.97039 106.49181 8974 ft 246 kts 249°
2026-04-27 22:06 -5.97667 106.47639 8790 ft 232 kts 249°
2026-04-27 22:07 -5.98261 106.46187 8623 ft 218 kts 249°
2026-04-27 22:07 -5.98815 106.44830 8470 ft 204 kts 249°
2026-04-27 22:07 -5.99354 106.43513 8336 ft 206 kts 249°
2026-04-27 22:07 -5.99902 106.42168 8186 ft 206 kts 250°
2026-04-27 22:08 -6.00446 106.40830 8036 ft 205 kts 249°
2026-04-27 22:08 -6.00984 106.39509 7886 ft 204 kts 249°
2026-04-27 22:08 -6.01512 106.38216 7737 ft 199 kts 249°
2026-04-27 22:08 -6.02041 106.36917 7597 ft 199 kts 249°
2026-04-27 22:09 -6.02561 106.35643 7450 ft 198 kts 250°
2026-04-27 22:09 -6.03085 106.34355 7307 ft 198 kts 250°
2026-04-27 22:09 -6.03650 106.33096 7129 ft 197 kts 238°
2026-04-27 22:09 -6.04586 106.32130 6966 ft 189 kts 212°
2026-04-27 22:10 -6.05854 106.31633 6854 ft 196 kts 189°
2026-04-27 22:10 -6.06740 106.31606 6692 ft 191 kts 173°
2026-04-27 22:10 -6.08449 106.32010 6510 ft 188 kts 169°
2026-04-27 22:10 -6.09749 106.32272 6371 ft 190 kts 171°
2026-04-27 22:11 -6.11050 106.32503 6198 ft 188 kts 171°
2026-04-27 22:11 -6.12340 106.32730 6036 ft 188 kts 171°
2026-04-27 22:11 -6.13655 106.32962 5873 ft 189 kts 171°
2026-04-27 22:11 -6.14945 106.33190 5706 ft 187 kts 171°
2026-04-27 22:12 -6.16225 106.33443 5523 ft 187 kts 161°
2026-04-27 22:12 -6.17448 106.33890 5387 ft 185 kts 175°
2026-04-27 22:12 -6.18756 106.33921 5240 ft 188 kts 176°
2026-04-27 22:12 -6.20015 106.34145 5009 ft 179 kts 158°
2026-04-27 22:13 -6.20991 106.34873 4832 ft 173 kts 128°
2026-04-27 22:13 -6.21619 106.35898 4798 ft 172 kts 121°
2026-04-27 22:13 -6.22247 106.36947 4799 ft 175 kts 123°
2026-04-27 22:13 -6.22894 106.37990 4786 ft 174 kts 123°
2026-04-27 22:14 -6.23510 106.39040 4756 ft 175 kts 111°
2026-04-27 22:14 -6.23680 106.40191 4692 ft 162 kts 90°
2026-04-27 22:14 -6.23495 106.41282 4644 ft 157 kts 77°
2026-04-27 22:14 -6.23141 106.42326 4438 ft 154 kts 72°
2026-04-27 22:15 -6.22740 106.43336 4249 ft 154 kts 70°
2026-04-27 22:15 -6.22332 106.44325 4059 ft 152 kts 70°
2026-04-27 22:15 -6.21930 106.45298 3872 ft 151 kts 70°
2026-04-27 22:15 -6.21532 106.46272 3680 ft 150 kts 70°
2026-04-27 22:16 -6.21134 106.47253 3488 ft 151 kts 71°
2026-04-27 22:16 -6.20741 106.48230 3291 ft 149 kts 71°
2026-04-27 22:16 -6.20347 106.49210 3101 ft 150 kts 71°
2026-04-27 22:16 -6.19955 106.50188 2901 ft 149 kts 71°
2026-04-27 22:17 -6.19568 106.51153 2709 ft 150 kts 71°
2026-04-27 22:17 -6.19180 106.52119 2513 ft 149 kts 71°
2026-04-27 22:17 -6.18791 106.53090 2318 ft 148 kts 71°
2026-04-27 22:17 -6.18407 106.54047 2122 ft 148 kts 71°
2026-04-27 22:18 -6.18021 106.55009 1930 ft 146 kts 71°
2026-04-27 22:18 -6.17647 106.55939 1741 ft 145 kts 70°
2026-04-27 22:18 -6.17267 106.56886 1542 ft 145 kts 70°
2026-04-27 22:18 -6.16887 106.57834 1346 ft 146 kts 70°
2026-04-27 22:19 -6.16511 106.58769 1163 ft 147 kts 71°
2026-04-27 22:19 -6.16127 106.59727 971 ft 147 kts 71°
2026-04-27 22:19 -6.15741 106.60688 778 ft 147 kts 70°
2026-04-27 22:19 -6.15356 106.61646 592 ft 148 kts 69°
2026-04-27 22:20 -6.14969 106.62603 409 ft 147 kts 68°
2026-04-27 22:20 -6.14584 106.63559 227 ft 149 kts 67°
2026-04-27 22:20 -6.14197 106.64513 80 ft 149 kts 68°
2026-04-27 22:20 -6.13828 106.65435 45 ft 125 kts 70°
2026-04-27 22:21 -6.13572 106.66082 44 ft 72 kts 68°
2026-04-27 22:21 -6.13453 106.66376 41 ft 21 kts 67°
2026-04-27 22:21 -6.13395 106.66513 40 ft 20 kts 67°
2026-04-27 22:21 -6.13310 106.66622 38 ft 19 kts 38°
2026-04-27 22:22 -6.13224 106.66687 38 ft 11 kts 35°
2026-04-27 22:22 -6.13165 106.66700 37 ft 8 kts 351°
2026-04-27 22:22 -6.13120 106.66725 37 ft 7 kts 59°
2026-04-27 22:22 -6.13098 106.66782 36 ft 9 kts 69°
2026-04-27 22:23 -6.13070 106.66853 35 ft 12 kts 69°
2026-04-27 22:23 -6.13035 106.66942 35 ft 15 kts 68°
2026-04-27 22:23 -6.12986 106.67066 35 ft 22 kts 68°
2026-04-27 22:23 -6.12936 106.67192 35 ft 20 kts 68°
2026-04-27 22:24 -6.12887 106.67315 38 ft 17 kts 66°
2026-04-27 22:24 -6.12838 106.67423 38 ft 16 kts 63°
2026-04-27 22:24 -6.12783 106.67521 38 ft 15 kts 59°
2026-04-27 22:24 -6.12731 106.67609 36 ft 15 kts 60°
2026-04-27 22:25 -6.12674 106.67708 35 ft 16 kts 60°
2026-04-27 22:25 -6.12595 106.67796 35 ft 16 kts 38°
2026-04-27 22:25 -6.12482 106.67850 35 ft 21 kts 12°
2026-04-27 22:25 -6.12332 106.67849 35 ft 21 kts 347°
2026-04-27 22:26 -6.12195 106.67800 36 ft 19 kts 338°
2026-04-27 22:26 -6.12068 106.67750 37 ft 20 kts 339°
2026-04-27 22:26 -6.11919 106.67692 36 ft 23 kts 337°
2026-04-27 22:26 -6.11775 106.67631 35 ft 23 kts 337°
2026-04-27 22:27 -6.11625 106.67570 34 ft 22 kts 338°
2026-04-27 22:27 -6.11480 106.67512 32 ft 22 kts 339°
2026-04-27 22:27 -6.11339 106.67458 32 ft 20 kts 339°
2026-04-27 22:27 -6.11210 106.67409 32 ft 19 kts 339°
2026-04-27 22:28 -6.11104 106.67342 30 ft 18 kts 309°
2026-04-27 22:28 -6.11104 106.67193 30 ft 24 kts 257°
2026-04-27 22:28 -6.11147 106.67030 29 ft 25 kts 255°
2026-04-27 22:28 -6.11215 106.66847 29 ft 29 kts 248°
2026-04-27 22:29 -6.11290 106.66659 28 ft 28 kts 248°
2026-04-27 22:29 -6.11358 106.66483 32 ft 25 kts 249°
2026-04-27 22:29 -6.11420 106.66325 32 ft 23 kts 249°
2026-04-27 22:29 -6.11476 106.66179 32 ft 21 kts 249°
2026-04-27 22:30 -6.11529 106.66042 32 ft 20 kts 248°
2026-04-27 22:30 -6.11597 106.65942 35 ft 16 kts 191°
2026-04-27 22:30 -6.11694 106.65969 36 ft 13 kts 158°
2026-04-27 22:30 -6.11781 106.66006 37 ft 13 kts 153°
2026-04-27 22:31 -6.11853 106.66052 37 ft 10 kts 145°
2026-04-27 22:31 -6.11895 106.66073 38 ft 4 kts 159°
2026-04-27 22:31 -6.11900 106.66075 38 ft 0 kts 159°